Location: Most
(50.5330°N, 13.6500°E)
Time: 07:55:02
(UTC+02:00)

SO-50 - Visible Passes

Search period start: 10 August 2022 00:00
Search period end: 20 August 2022 00:00
Orbit: 585 x 698 km, 64.6° (Epoch: 09 August)

Date Brightness Start Highest point End Pass type
(mag) Time Alt. Az. Time Alt. Az. Time Alt. Az.
10 Aug ? 00:21:07 10° WNW 00:24:19 17° WSW 00:24:34 17° WSW visible
10 Aug ? 21:23:38 10° NNW 21:28:19 39° NE 21:32:56 10° ESE visible
10 Aug ? 23:04:08 10° NW 23:08:53 48° WSW 23:10:39 33° S visible
11 Aug ? 21:48:02 10° NW 21:52:59 67° NE 21:56:46 17° SE visible
11 Aug ? 23:29:05 10° WNW 23:33:02 24° WSW 23:34:21 22° SW visible
12 Aug ? 22:12:31 10° NW 22:17:27 67° SW 22:20:30 22° SSE visible
12 Aug ? 23:55:17 10° W 23:56:57 12° WSW 23:58:06 11° WSW visible
13 Aug ? 22:37:15 10° NW 22:41:41 34° WSW 22:44:18 20° SSW visible
14 Aug ? 21:20:57 10° NW 21:25:57 90° WSW 21:30:34 12° SE visible
14 Aug ? 23:02:36 10° WNW 23:05:43 17° WSW 23:08:09 12° SW visible
15 Aug ? 21:45:33 10° NW 21:50:18 47° WSW 21:54:28 13° SSE visible
16 Aug ? 22:10:31 10° WNW 22:14:25 24° WSW 22:18:16 10° SSW visible
17 Aug ? 20:53:55 10° NW 20:58:51 65° SW 21:03:40 10° SSE visible
17 Aug ? 22:36:51 10° W 22:38:20 11° WSW 22:39:49 10° SW visible
18 Aug ? 21:18:41 10° NW 21:23:05 33° WSW 21:27:24 10° S visible
19 Aug ? 21:44:03 10° WNW 21:47:06 16° WSW 21:50:05 10° SSW visible
